Location: Aalen
(48.8330°N, 10.1000°E)
Time: 09:31:59
(UTC+02:00)

Transit 2A - Pass Details

Date: 31 July 2021
Orbit: 594 x 964 km, 66.7° (Epoch: 24 September)

Event Time Altitude Azimuth Distance (km) Brightness Sun altitude
Rises 18:12:35 0° 307° (NW) 3,303 10.0 25.5°
Reaches altitude 10° 18:16:33 10° 278° (W) 2,457 10.5 24.9°
Maximum altitude 18:18:40 12° 256° (WSW) 2,345 10.3 24.5°
Drops below altitude 10° 18:20:51 10° 234° (SW) 2,538 9.7 24.2°
Sets 18:25:08 0° 206° (SSW) 3,546 9.8 23.5°
